Location: Bolzum
(52.2957°N, 9.9461°E)
Time: 16:35:16
(UTC+00:00)

Daily predictions for brighter satellites

Satellite Brightness Start Highest point End
(mag) Time Altitude Azimuth Time Altitude Azimuth Time Altitude Azimuth
IGS 5A 3.9 16:20:51 10° S 16:24:47 66° WSW 16:28:46 10° NNW
COSMO-SKYMED 1 4.4 16:24:47 10° ENE 16:25:27 10° E 16:26:06 10° E
Cosmos 1656 4.2 16:22:25 10° NW 16:27:58 67° WSW 16:33:25 10° SSE
DNEPR-1 R/B 3.6 16:24:09 10° SW 16:28:27 80° NW 16:32:45 10° NE
Cosmos 1943 4.2 16:24:46 10° WSW 16:30:09 44° NW 16:35:36 10° NNE
Meteor 1-21 4.3 16:29:26 10° S 16:35:02 88° ESE 16:40:41 10° NNE
ATLAS 3B R/B 3.9 16:29:45 10° WNW 16:36:54 36° N 16:44:01 10° ENE
Okean 2 3.2 16:33:21 10° S 16:37:09 62° E 16:40:58 10° NNE
Cosmos 1821 Rocket 4.1 16:33:35 10° NNW 16:39:47 85° W 16:45:53 10° S
ARIANE 5 R/B 2.5 16:35:38 10° SSE 16:40:48 71° ENE 16:45:59 10° NNW
USA 305 3.5 16:38:02 10° SSW 16:41:21 35° SE 16:44:56 11° ENE
YAOGAN 1 3.4 16:38:24 10° ESE 16:42:02 28° ENE 16:45:41 10° N
Cosmos 1340 Rocket 2.9 16:38:51 10° NNW 16:42:42 77° W 16:46:32 10° S
BREEZE-M DEB (TANK) 3.1 16:40:15 10° WSW 16:45:38 79° S 16:50:10 10° E
COSMOS 2455 2.9 16:40:14 10° NW 16:46:16 66° NE 16:52:15 10° SE
CZ-2D R/B 2.6 16:43:44 10° SSE 16:46:48 62° ENE 16:49:54 10° N
SAR-Lupe-1 4.4 16:44:58 10° SE 16:48:21 43° ENE 16:51:46 10° N
NOSS 3-4 (A) 3.6 16:43:07 10° WSW 16:48:27 63° NW 16:54:33 10° NE
NOSS 3-4 (C) 3.6 16:43:16 10° WSW 16:48:39 63° NW 16:54:45 10° NE
Cosmos 2237 Rocket 4.3 16:50:52 10° NW 16:53:19 13° NNW 16:55:47 10° NNE
Cosmos 1515 Rocket 4.2 16:49:53 10° SSW 16:54:16 60° WNW 16:58:40 10° N
UNK 3.6 16:50:47 10° NNE 16:55:20 78° ESE 16:59:51 10° SSW
PSLV R/B 4.3 16:52:51 10° ESE 16:56:23 27° ENE 16:59:55 10° N
NOSS 8 (A) 4.3 16:53:58 10° NW 16:56:44 45° NE 16:59:40 10° ESE
NOSS 3-1 (A) 4.0 16:51:35 10° NW 16:58:05 60° NE 17:06:20 10° ESE
CZ-2D R/B 3.9 16:54:41 10° SE 16:58:08 33° ENE 17:01:38 10° N
Cosmos 2322 Rocket 3.9 16:56:58 10° NNW 17:00:25 16° NNE 17:02:57 12° NE
USA 276 2.5 16:58:57 10° W 17:01:05 39° S 17:03:12 12° ESE
SL-16 R/B 4.2 16:58:31 10° WNW 17:02:25 19° NNW 17:06:20 10° NNE
RESURS DK-1 3.0 16:58:47 10° SW 17:02:40 51° NW 17:06:35 10° NNE
Cosmos 1302 Rocket 4.1 16:57:26 10° SSW 17:02:43 88° WNW 17:08:02 10° NNE
SAR-Lupe-4 3.5 17:01:05 10° SSE 17:04:38 67° ENE 17:08:13 10° N
SKYMED 2 4.1 17:01:56 10° NNE 17:06:01 38° E 17:10:05 10° SSE
Cosmos 1503 Rocket 4.5 17:02:35 10° NNW 17:07:29 39° NE 17:12:25 10° ESE
NOSS 3-1 (C) 4.0 17:00:53 10° NW 17:07:42 85° SW 17:16:19 10° SE
Cosmos 1934 Rocket 4.0 17:02:19 10° N 17:08:28 65° ENE 17:14:41 10° SSE
Radarsat Rocket 4.0 17:03:58 10° SE 17:09:40 51° ENE 17:15:19 10° NNW
SJ-12 4.1 17:06:55 10° S 17:10:43 70° WSW 17:14:33 10° NNW
CARTOSAT-1 4.1 17:10:09 10° SE 17:13:55 33° ENE 17:17:43 10° N
Cosmos 1733 Rocket 3.0 17:10:26 10° N 17:14:47 65° ENE 17:19:05 10° SSE
Cosmos 2333 Rocket 3.5 17:12:40 10° NNW 17:17:03 22° NNE 17:19:13 18° ENE
USA 59 Rocket 1.6 17:14:37 10° WNW 17:17:44 32° SW 17:21:43 10° SSE
MOS 1 Rocket 4.4 17:13:25 10° S 17:18:20 51° W 17:23:02 10° NNW
Cosmos 1980 Rocket 2.2 17:14:20 10° NNW 17:19:54 62° NE 17:25:28 10° SE
Cosmos 1992 Rocket 3.9 17:16:30 10° SSW 17:21:40 79° ESE 17:26:53 10° NNE
Meteor 2-19 Rocket 4.5 17:23:24 10° SSE 17:29:19 55° E 17:35:15 10° NNE
Cosmos 2369 3.9 17:24:51 10° NNW 17:30:20 47° NE 17:35:01 14° ESE
ATLAS 5 CENTAUR R/B 3.2 17:32:35 10° NW 17:34:42 15° N 17:36:00 13° NNE
Okean 3 4.3 17:30:49 10° SSW 17:34:44 49° WNW 17:38:40 10° N
Cosmos 2219 Rocket 3.8 17:32:12 10° NNW 17:35:37 16° NNE 17:36:42 15° NE
Cosmos 1486 Rocket 3.9 17:31:52 10° NNW 17:37:13 84° ENE 17:42:30 10° SSE
ARIANE 6 FM1 Upper Stage 3.8 17:35:52 10° S 17:39:12 25° SE 17:39:22 25° ESE
SPOT 5 4.4 17:40:43 17° NNE 17:40:43 17° NNE 17:42:31 10° N
Cosmos 1697 Rocket 3.6 17:34:58 10° NW 17:40:29 53° WSW 17:45:57 10° S
BREEZE-M DEB (TANK) 3.5 17:38:07 10° WSW 17:41:27 61° SSE 17:47:10 23° E
ISS -3.6 17:42:07 10° W 17:45:27 68° SSW 17:46:23 42° SE
NOAA 6 3.9 17:41:39 10° SSE 17:46:45 73° ENE 17:51:53 10° NNW
Okean 1-7 2.7 17:42:50 10° S 17:46:55 70° E 17:50:42 12° NNE
Cosmos 1833 Rocket 2.8 17:41:36 10° SW 17:47:15 80° WNW 17:52:09 14° NNE
Cosmos 1354 Rocket 4.1 17:42:08 10° NNW 17:47:18 54° ENE 17:51:11 17° SE
SPOT 1/Viking Rocket 4.3 17:43:25 10° S 17:48:27 54° W 17:53:30 10° NNW
SL-16 R/B 4.1 17:43:21 10° N 17:48:46 33° WNW 17:54:10 10° WSW
Cosmos 2360 Rocket 3.4 17:45:19 10° NNW 17:49:43 23° NE 17:50:14 22° NE
USA 267 3.4 17:46:25 26° E 17:50:17 64° N 17:56:45 10° WNW
BlueWalker 3 2.6 17:48:48 10° SSW 17:52:01 33° SSE 17:52:09 33° SE
Resurs 01 Rocket 1.5 17:49:22 10° SSE 17:53:39 60° ENE 17:58:00 10° N
Cosmos 2228 Rocket 2.9 17:50:18 10° S 17:54:43 72° E 17:58:52 12° NNE
IRAS Rocket 4.1 17:50:08 10° SSE 17:55:38 71° ENE 18:01:13 10° NNW
Cosmos 2082 Rocket 2.8 17:51:21 10° S 17:56:18 33° ESE 17:56:44 33° E
Timation 1 Rocket 4.4 17:51:16 10° S 17:57:03 55° ESE 18:00:00 28° NE
Cosmos 2237 4.3 17:53:49 10° NNW 17:59:27 56° NE 18:02:05 31° ESE
SL-16 R/B 2.7 17:55:10 10° NNW 18:00:26 37° NE 18:01:19 35° ENE
COSMO-SKYMED 1 2.3 17:58:32 19° NNE 18:01:27 81° ESE 18:05:34 10° SSW
Cosmos 1777 Rocket 4.1 17:56:58 10° NNW 18:02:11 78° WSW 18:07:23 10° SSE
SJ-6B 4.2 18:04:21 22° N 18:04:21 22° N 18:05:46 10° N
Spot 4 Rocket 4.3 17:58:46 10° S 18:03:51 68° WSW 18:08:59 10° NNW
Resurs 1-3 4.5 18:02:07 10° S 18:06:18 50° W 18:10:31 10° NNW
USA 305 2.5 18:03:39 10° WSW 18:07:34 86° NNW 18:07:59 71° ENE
Cosmos 1300 Rocket 4.3 18:04:45 10° N 18:07:44 35° NNE 18:07:44 35° NNE
Cosmos 990 Rocket 3.9 18:03:57 10° NNW 18:09:12 69° ENE 18:11:49 30° SE
Meteor 2-14 Rocket 4.4 18:10:01 10° S 18:15:58 55° E 18:21:58 10° NNE
Cosmos 2173 Rocket 4.2 18:10:26 10° N 18:16:36 48° ENE 18:18:25 38° ESE
YAOGAN 1 3.9 18:13:45 10° SSW 18:17:45 39° W 18:21:47 10° NNW
Cosmos 1862 Rocket 4.3 18:13:44 10° SSW 18:18:02 53° WNW 18:22:21 10° N
Meteor 1-24 Rocket 3.7 18:14:49 10° S 18:20:35 78° E 18:26:35 10° NNE
Cosmos 1908 Rocket 3.6 18:22:17 10° NNW 18:26:41 78° W 18:31:04 10° S
Cosmos 372 Rocket 4.4 18:21:57 10° NNW 18:26:05 43° NNE 18:26:05 43° NNE
Cosmos 1898 Rocket 4.2 18:23:09 10° NNW 18:27:11 38° NNE 18:27:11 38° NNE
ATLAS 3B R/B 3.3 18:21:49 10° NW 18:29:27 49° NNE 18:31:24 41° ENE
Cosmos 909 Rocket 4.2 18:22:17 10° SW 18:29:33 79° NW 18:32:44 33° NE
DMSP B5D1-3 4.3 18:29:09 31° NNE 18:31:39 84° ESE 18:36:44 10° SSW
Cosmos 1802 Rocket 4.4 18:26:17 10° N 18:31:19 42° NE 18:31:19 42° NE
Cosmos 2237 Rocket 4.3 18:37:34 10° NNW 18:39:57 13° NNE 18:39:57 13° NNE
Cosmos 1809 Rocket 4.3 18:34:16 10° S 18:40:27 83° E 18:46:41 10° NNE
Cosmos 1727 Rocket 3.8 18:37:40 10° S 18:43:56 71° E 18:50:09 10° NNE
Meteor 2-5 Rocket 3.8 18:39:48 10° SSW 18:45:26 79° WNW 18:51:15 10° NNE
Cosmos 2322 Rocket 2.9 18:40:35 10° NNW 18:44:45 38° NNE 18:44:45 38° NNE
Cosmos 2278 3.9 18:40:50 10° NNW 18:45:42 54° NNE 18:45:42 54° NNE
SL-16 R/B 4.5 18:47:13 10° NNW 18:49:00 11° N 18:50:08 11° N
Aureole 1 Rocket 3.6 18:42:38 10° NNW 18:49:19 80° ENE 18:49:36 77° E
Terra 4.3 18:56:22 11° N 18:56:22 11° N 18:56:28 10° N
USA 215 4.2 18:59:01 30° SSE 18:59:01 30° SSE 19:03:02 10° SSW
Cosmos 540 Rocket 4.4 18:53:53 10° SSW 18:56:54 37° SSW 18:56:54 37° SSW
ATLAS 2AS CENTAUR R/B 4.1 18:54:26 10° S 18:57:06 22° SSE 18:57:06 22° SSE
Cosmos 2333 Rocket 2.5 18:56:39 10° NNW 19:01:15 55° N 19:01:15 55° N
Cosmos 1980 Rocket 4.0 18:58:49 10° NW 19:03:31 28° WSW 19:08:12 10° SSW
CSL-04 Rocket 3.8 19:05:32 65° NNW 19:05:32 65° NNW 19:10:05 10° NNW
Cosmos 1763 Rocket 4.2 19:00:49 10° SSW 19:04:22 46° SW 19:04:22 46° SW
USA 229 DEB 3.8 19:13:45 10° NW 19:20:58 74° NE 19:20:58 74° NE
Cosmos 2219 Rocket 3.7 19:15:41 10° NNW 19:18:24 27° N 19:18:24 27° N
USA 229 3.8 19:13:50 10° NW 19:21:02 73° NE 19:21:02 73° NE
ISS -0.3 19:19:05 10° W 19:19:19 11° W 19:19:19 11° W
Resurs 01 Rocket 4.2 19:27:19 10° SW 19:30:25 19° W 19:33:33 10° NW
USA 267 3.3 19:33:46 74° W 19:33:46 74° W 19:39:50 10° WNW
Cosmos 2360 Rocket 3.5 19:28:58 10° NNW 19:31:59 33° NNW 19:31:59 33° NNW
Cosmos 1459 Rocket 4.4 19:31:33 10° NNW 19:37:22 56° W 19:37:22 56° W
Cosmos 2082 Rocket 3.2 19:34:40 10° SW 19:38:38 41° W 19:38:38 41° W
SL-16 R/B 3.3 19:39:15 10° NW 19:43:11 41° WNW 19:43:11 41° WNW
ATLAS 3B R/B 3.6 20:12:57 10° NW 20:18:40 51° WNW 20:18:40 51° WNW
Cosmos 2322 Rocket 4.4 20:24:45 10° NW 20:26:34 20° NW 20:26:34 20° NW
